Change the Weather History Date:

Monday, February 11, 2013

  Actual Average (KGVL) Record (KGVL)
Temperature  
Mean Temperature 50 °F 45 °F  
Max Temperature 55 °F 54 °F 75 °F (1932)
Min Temperature 46 °F 35 °F 9 °F (1971)
Degree Days  
Heating Degree Days 14 20  
Month to date heating degree days 234  
Since 1 July heating degree days 2152  
Moisture  
Dew Point 47 °F    
Average Humidity 86    
Maximum Humidity 94    
Minimum Humidity 76    
Precipitation  
Precipitation 0.00 in 0.16 in 2.55 in (1981)
Month to date precipitation 1.73  
Year to date precipitation 6.76  
Sea Level Pressure  
Sea Level Pressure 30.09 in    
Wind  
Wind Speed 4 mph (WSW)    
Max Wind Speed 8 mph    
Max Gust Speed -    
Visibility 5 miles    
Events Fog , Rain    
T = Trace of Precipitation, MM = Missing Value Source: NWS Daily Summary

Daily Weather History Graph

Daily Weather History Graph

Search for Another Location

Airport or City:

Trip Planner

Search our weather history database for the weather conditions in past years. The results will help you decide how hot, cold, wet, or windy it might be!

Date:

Astronomy

Feb. 11, 2013 Rise Set
Actual Time 7:26 AM EST 6:17 PM EST
Civil Twilight 7:00 AM EST 6:43 PM EST
Nautical Twilight 6:31 AM EST 7:13 PM EST
Astronomical Twilight 6:01 AM EST 7:42 PM EST
Moon 7:56 AM EST (2/11) 8:05 PM EST (2/11)
Length of Visible Light 11h 42m
Length of Day
10h 51m
Waxing Crescent, 3% of the Moon is Illuminated
Feb 11
Waxing Crescent
Feb 17
First Quarter
Feb 25
Full
Mar 4
Last Quarter
Mar 11
New

Hourly Weather History & Observations

Time (EST) Temp. Windchill Dew Point Humidity Pressure Visibility Wind Dir Wind Speed Gust Speed Precip Events Conditions
12:15 AM 48.2 °F - 44.6 °F 87% 30.11 in 7.0 mi ENE 6.9 mph - N/A Rain Light Rain
12:35 AM 48.2 °F - 44.6 °F 87% 30.11 in 5.0 mi East 8.1 mph - N/A Rain Light Rain
12:55 AM 48.2 °F - 44.6 °F 87% 30.13 in 2.5 mi ENE 8.1 mph - N/A Rain Heavy Rain
1:15 AM 46.4 °F 42.9 °F 42.8 °F 87% 30.09 in 5.0 mi East 6.9 mph - N/A Rain Rain
1:35 AM 48.2 °F - 44.6 °F 87% 30.10 in 7.0 mi ENE 5.8 mph - N/A   Light Drizzle
1:55 AM 48.2 °F - 44.6 °F 87% 30.09 in 7.0 mi East 5.8 mph - N/A Rain Light Rain
2:15 AM 48.2 °F - 44.6 °F 87% 30.08 in 7.0 mi East 8.1 mph - N/A Rain Rain
2:35 AM 48.2 °F - 44.6 °F 87% 30.08 in 7.0 mi ENE 8.1 mph - N/A Rain Light Rain
3:15 AM 50.0 °F - 44.6 °F 82% 30.09 in 7.0 mi ENE 5.8 mph - N/A   Overcast
3:35 AM 50.0 °F - 44.6 °F 82% 30.09 in 5.0 mi ESE 4.6 mph - N/A Rain Light Rain
3:55 AM 50.0 °F - 44.6 °F 82% 30.08 in 2.0 mi Calm Calm - N/A Rain Rain
4:15 AM 50.0 °F - 44.6 °F 82% 30.07 in 2.5 mi Calm Calm - N/A Rain Light Rain
4:35 AM 50.0 °F - 44.6 °F 82% 30.07 in 4.0 mi ENE 3.5 mph - N/A   Overcast
4:55 AM 50.0 °F - 44.6 °F 82% 30.06 in 4.0 mi ENE 3.5 mph - N/A   Overcast
5:15 AM 50.0 °F - 44.6 °F 82% 30.06 in 5.0 mi ENE 3.5 mph - N/A   Overcast
5:35 AM 50.0 °F - 44.6 °F 82% 30.04 in 7.0 mi ENE 4.6 mph - N/A   Overcast
5:55 AM 50.0 °F - 46.4 °F 87% 30.05 in 10.0 mi ENE 3.5 mph - N/A   Overcast
6:15 AM 50.0 °F - 46.4 °F 87% 30.06 in 10.0 mi Calm Calm - N/A   Overcast
6:35 AM 50.0 °F - 46.4 °F 87% 30.07 in 5.0 mi Calm Calm - N/A   Overcast
6:55 AM 50.0 °F - 46.4 °F 87% 30.08 in 1.8 mi Calm Calm - N/A   Overcast
7:15 AM 50.0 °F - 46.4 °F 87% 30.08 in 0.5 mi Calm Calm - N/A Rain Light Rain
7:35 AM 50.0 °F - 46.4 °F 87% 30.08 in 0.5 mi Calm Calm - N/A Rain Rain
7:55 AM 50.0 °F - 46.4 °F 87% 30.07 in 1.2 mi Calm Calm - N/A   Light Drizzle
8:15 AM 51.8 °F - 46.4 °F 82% 30.08 in 0.5 mi Calm Calm - N/A Fog Fog
8:35 AM 50.0 °F - 46.4 °F 87% 30.08 in 0.2 mi Calm Calm - N/A Rain Light Rain
8:55 AM 51.8 °F - 46.4 °F 82% 30.08 in 0.2 mi Calm Calm - N/A Rain Light Rain
9:15 AM 50.0 °F - 46.4 °F 87% 30.09 in 0.2 mi Calm Calm - N/A Rain Light Rain
9:35 AM 51.8 °F - 46.4 °F 82% 30.10 in 0.2 mi Calm Calm - N/A   Heavy Drizzle
9:55 AM 51.8 °F - 46.4 °F 82% 30.11 in 0.5 mi Calm Calm - N/A Rain Light Rain
10:15 AM 51.8 °F - 48.2 °F 88% 30.11 in 0.5 mi Calm Calm - N/A   Drizzle
10:35 AM 51.8 °F - 48.2 °F 88% 30.12 in 0.2 mi Calm Calm - N/A Rain Rain
10:55 AM 51.8 °F - 48.2 °F 88% 30.13 in 0.8 mi WNW 3.5 mph - N/A   Overcast
11:15 AM 53.6 °F - 50.0 °F 88% 30.12 in 2.5 mi Calm Calm - N/A   Overcast
11:35 AM 53.6 °F - 50.0 °F 88% 30.13 in 4.0 mi Calm Calm - N/A   Overcast
11:55 AM 53.6 °F - 50.0 °F 88% 30.13 in 10.0 mi SSW 3.5 mph - N/A   Overcast
12:15 PM 53.6 °F - 50.0 °F 88% 30.12 in 0.2 mi SSW 3.5 mph - N/A   Light Drizzle
12:35 PM 53.6 °F - 50.0 °F 88% 30.12 in 1.8 mi SW 5.8 mph - N/A   Overcast
12:55 PM 53.6 °F - 50.0 °F 88% 30.15 in 2.5 mi West 4.6 mph - N/A   Drizzle
1:15 PM 53.6 °F - 50.0 °F 88% 30.13 in 4.0 mi WSW 3.5 mph - N/A Rain Light Rain
1:35 PM 53.6 °F - 51.8 °F 94% 30.09 in 7.0 mi SSE 4.6 mph - N/A   Light Drizzle
1:55 PM 55.4 °F - 51.8 °F 88% 30.11 in 1.8 mi WNW 5.8 mph - N/A   Overcast
2:15 PM 55.4 °F - 51.8 °F 88% 30.11 in 5.0 mi WNW 3.5 mph - N/A Rain Light Rain
2:35 PM 55.4 °F - 51.8 °F 88% 30.11 in 5.0 mi WNW 4.6 mph - N/A   Overcast
2:55 PM 53.6 °F - 51.8 °F 94% 30.11 in 10.0 mi West 4.6 mph - N/A   Mostly Cloudy
3:15 PM 53.6 °F - 51.8 °F 94% 30.09 in 10.0 mi Calm Calm - N/A   Scattered Clouds
3:35 PM 53.6 °F - 51.8 °F 94% 30.07 in 10.0 mi SSW 3.5 mph - N/A   Scattered Clouds
3:55 PM 53.6 °F - 51.8 °F 94% 30.07 in 7.0 mi SW 5.8 mph - N/A   Light Drizzle
4:15 PM 53.6 °F - 50.0 °F 88% 30.09 in 3.0 mi West 4.6 mph - N/A   Light Drizzle
4:35 PM 53.6 °F - 50.0 °F 88% 30.11 in 5.0 mi West 5.8 mph - N/A   Mostly Cloudy
4:55 PM 53.6 °F - 50.0 °F 88% 30.06 in 10.0 mi WSW 4.6 mph - N/A   Mostly Cloudy
5:55 PM 51.8 °F - 46.4 °F 82% 30.10 in 7.0 mi West 4.6 mph - N/A   Clear
6:15 PM 51.8 °F - 46.4 °F 82% 30.09 in 10.0 mi West 3.5 mph - N/A   Clear
6:35 PM 51.8 °F - 44.6 °F 76% 30.09 in 10.0 mi WNW 3.5 mph - N/A   Clear
6:55 PM 50.0 °F - 44.6 °F 82% 30.09 in 10.0 mi NW 3.5 mph - N/A   Clear
7:15 PM 50.0 °F - 44.6 °F 82% 30.09 in 10.0 mi Calm Calm - N/A   Clear
7:35 PM 51.8 °F - 44.6 °F 76% 30.09 in 10.0 mi Calm Calm - N/A   Clear
7:55 PM 50.0 °F - 42.8 °F 76% 30.10 in 10.0 mi Calm Calm - N/A   Clear
8:15 PM 50.0 °F - 44.6 °F 82% 30.09 in 10.0 mi Calm Calm - N/A   Clear
8:35 PM 50.0 °F - 44.6 °F 82% 30.11 in 10.0 mi Calm Calm - N/A   Clear
8:55 PM 50.0 °F - 44.6 °F 82% 30.11 in 7.0 mi SSW 3.5 mph - N/A   Scattered Clouds
9:15 PM 50.0 °F - 44.6 °F 82% 30.09 in 10.0 mi SSW 3.5 mph - N/A   Scattered Clouds
9:35 PM 50.0 °F - 44.6 °F 82% 30.10 in 1.5 mi SW 3.5 mph - N/A   Mist
9:55 PM 50.0 °F - 44.6 °F 82% 30.09 in 1.0 mi Calm Calm - N/A   Haze
10:15 PM 48.2 °F - 44.6 °F 87% 30.08 in 1.0 mi Calm Calm - N/A   Mostly Cloudy
10:35 PM 48.2 °F - 42.8 °F 82% 30.13 in 2.5 mi West 4.6 mph - N/A   Haze
10:55 PM 48.2 °F - 44.6 °F 87% 30.09 in 10.0 mi Calm Calm - N/A   Clear
11:15 PM 46.4 °F 45.2 °F 42.8 °F 87% 30.13 in 5.0 mi WNW 3.5 mph - N/A   Clear
11:35 PM 48.2 °F - 44.6 °F 87% 30.11 in 10.0 mi Calm Calm - N/A   Mostly Cloudy
11:55 PM 48.2 °F - 44.6 °F 87% 30.11 in 10.0 mi Calm Calm - N/A   Overcast